Weather History for Westminster, MD

Change the Weather History Date:

Tuesday, February 25, 2014

  Actual Average (KTHV) Record (KTHV)
Temperature  
Mean Temperature 27 °F -  
Max Temperature 33 °F 0 °F 59 °F (2002)
Min Temperature 21 °F - 8 °F (2005)
Degree Days  
Heating Degree Days 38    
Moisture  
Dew Point 13 °F    
Average Humidity 55    
Maximum Humidity 87    
Minimum Humidity 43    
Precipitation  
Precipitation 0.00 in - - ()
Sea Level Pressure  
Sea Level Pressure 30.04 in    
Wind  
Wind Speed 5 mph (WNW)    
Max Wind Speed 14 mph    
Max Gust Speed 23 mph    
Visibility 10 miles    
Events Snow    
Averages and records for this station are not official NWS values.
T = Trace of Precipitation, MM = Missing Value Source: NWS Daily Summary

Daily Weather History Graph

Daily Weather History Graph

Search for Another Location

Airport:

Trip Planner

Search our weather history database for the weather conditions in past years. The results will help you decide how hot, cold, wet, or windy it might be!

Date:

Astronomy

Feb. 25, 2014 Rise Set
Actual Time 6:46 AM EST 5:55 PM EST
Civil Twilight 6:19 AM EST 6:23 PM EST
Nautical Twilight 5:48 AM EST 6:54 PM EST
Astronomical Twilight 5:17 AM EST 7:25 PM EST
Moon 3:39 AM EST (2/25) 1:59 PM EST (2/25)
Length of Visible Light 12h 03m
Length of Day
11h 08m
Waning Crescent, 18% of the Moon is Illuminated
Feb 25
Waning Crescent
Mar 1
New
Mar 8
First Quarter
Mar 16
Full
Mar 23
Last Quarter

Hourly Weather History & Observations

Time (EST) Temp. Windchill Dew Point Humidity Pressure Visibility Wind Dir Wind Speed Gust Speed Precip Events Conditions
12:10 AM 26.6 °F 22.6 °F 6.8 °F 43% 30.10 in 10.0 mi West 3.5 mph - N/A   Clear
12:30 AM 26.6 °F 20.0 °F 8.6 °F 47% 30.09 in 10.0 mi WNW 5.8 mph - N/A   Unknown
12:50 AM 26.6 °F - 6.8 °F 43% 30.09 in 10.0 mi Calm Calm - N/A   Clear
1:10 AM 26.6 °F - 6.8 °F 43% 30.09 in 10.0 mi Calm Calm - N/A   Clear
1:30 AM 28.4 °F 24.6 °F 8.6 °F 43% 30.08 in 10.0 mi WNW 3.5 mph - N/A   Clear
1:50 AM 26.6 °F 21.2 °F 6.8 °F 43% 30.08 in 10.0 mi WNW 4.6 mph - N/A   Clear
2:10 AM 26.6 °F - 8.6 °F 47% 30.08 in 10.0 mi Calm Calm - N/A   Clear
2:35 AM 24.8 °F - 10.4 °F 54% 30.08 in 10.0 mi Calm Calm - N/A   Clear
2:55 AM 24.8 °F 20.5 °F 10.4 °F 54% 30.07 in 10.0 mi WNW 3.5 mph - N/A   Clear
3:15 AM 26.6 °F 22.6 °F 10.4 °F 51% 30.06 in 10.0 mi WNW 3.5 mph - N/A   Clear
3:35 AM 24.8 °F - 10.4 °F 54% 30.06 in 10.0 mi Calm Calm - N/A   Clear
3:55 AM - - - N/A% 30.06 in 10.0 mi Calm Calm - N/A   Clear
4:15 AM 21.2 °F - 12.2 °F 68% 30.06 in 10.0 mi Calm Calm - N/A   Clear
4:35 AM 24.8 °F - 10.4 °F 54% 30.06 in 10.0 mi Calm Calm - N/A   Clear
4:55 AM 26.6 °F - 10.4 °F 51% 30.06 in 10.0 mi Calm Calm - N/A   Scattered Clouds
5:15 AM - - - N/A% 30.06 in 10.0 mi Calm Calm - N/A   Scattered Clouds
5:35 AM 26.6 °F - 10.4 °F 51% 30.06 in 10.0 mi Calm Calm - N/A   Scattered Clouds
5:55 AM 26.6 °F 22.6 °F 10.4 °F 51% 30.06 in 10.0 mi West 3.5 mph - N/A   Mostly Cloudy
6:15 AM 26.6 °F 21.2 °F 8.6 °F 47% - 10.0 mi West 4.6 mph - N/A   Overcast
6:35 AM 26.6 °F 20.0 °F 8.6 °F 47% - 10.0 mi West 5.8 mph - N/A   Overcast
6:55 AM 28.4 °F - 8.6 °F 43% 30.07 in 10.0 mi Calm Calm - N/A   Overcast
7:15 AM - - - N/A% 30.08 in 10.0 mi Calm Calm - N/A   Mostly Cloudy
7:35 AM - - - N/A% 30.08 in 10.0 mi Calm Calm - N/A   Scattered Clouds
7:55 AM 28.4 °F - - N/A% 30.08 in 10.0 mi Calm Calm - N/A   Scattered Clouds
8:15 AM 28.4 °F 23.3 °F - N/A% 30.09 in 10.0 mi West 4.6 mph - N/A   Mostly Cloudy
8:35 AM - - - N/A% 30.09 in 10.0 mi WNW 8.1 mph - N/A   Overcast
8:55 AM 26.6 °F 18.2 °F 15.8 °F 64% 30.09 in 7.0 mi West 8.1 mph - N/A Snow Light Snow
9:15 AM 26.6 °F 17.5 °F 15.8 °F 64% - 10.0 mi WNW 9.2 mph - N/A   Overcast
9:35 AM 26.6 °F 17.5 °F - N/A% 30.09 in 7.0 mi WNW 9.2 mph - N/A Snow Light Snow
9:55 AM - - - N/A% 30.09 in 4.0 mi West 8.1 mph - N/A   Unknown
10:15 AM 26.6 °F 17.5 °F 21.2 °F 80% 30.08 in 1.0 mi West 9.2 mph - N/A Snow Light Snow
10:35 AM 26.6 °F 18.2 °F 23.0 °F 86% 30.08 in 2.0 mi West 8.1 mph - N/A Snow Light Snow
10:55 AM - - - N/A% 30.07 in 7.0 mi WSW 9.2 mph - N/A   Unknown
11:15 AM 26.6 °F 16.8 °F - N/A% 30.07 in 10.0 mi WSW 10.4 mph - N/A   Overcast
11:35 AM 28.4 °F 19.7 °F 23.0 °F 80% 30.06 in 10.0 mi West 9.2 mph - N/A   Overcast
11:55 AM - - - N/A% 30.05 in 10.0 mi SW 9.2 mph - N/A   Overcast
12:15 PM 30.2 °F 23.4 °F 21.2 °F 69% 30.04 in 10.0 mi WSW 6.9 mph - N/A   Overcast
12:35 PM - - - N/A% 30.03 in 10.0 mi West 9.2 mph - N/A   Overcast
12:55 PM - - - N/A% 30.02 in 10.0 mi West 9.2 mph - N/A   Unknown
1:15 PM - - - N/A% 30.01 in 10.0 mi WNW 10.4 mph 16.1 mph N/A   Overcast
1:35 PM 30.2 °F 21.3 °F 17.6 °F 60% 30.00 in 10.0 mi WNW 10.4 mph - N/A   Overcast
1:55 PM 30.2 °F 19.8 °F 17.6 °F 60% 30.00 in 10.0 mi WNW 13.8 mph 18.4 mph N/A   Overcast
2:15 PM 32.0 °F 22.1 °F 17.6 °F 55% 29.99 in 10.0 mi WNW 13.8 mph 18.4 mph N/A   Mostly Cloudy
2:35 PM 32.0 °F 24.2 °F 17.6 °F 55% 29.98 in 10.0 mi West 9.2 mph 16.1 mph N/A   Scattered Clouds
2:55 PM 33.8 °F 25.8 °F 17.6 °F 52% 29.97 in 10.0 mi WNW 10.4 mph 18.4 mph N/A   Mostly Cloudy
3:15 PM 32.0 °F 22.5 °F 15.8 °F 51% 29.97 in 10.0 mi WNW 12.7 mph 18.4 mph N/A   Mostly Cloudy
3:35 PM 33.8 °F 26.4 °F 14.0 °F 44% 29.97 in 10.0 mi WNW 9.2 mph - N/A   Overcast
3:55 PM 33.8 °F 25.8 °F 30.2 °F 87% 29.97 in 10.0 mi NW 10.4 mph 17.3 mph N/A   Overcast
4:15 PM 33.8 °F 25.3 °F 14.0 °F 44% - 10.0 mi WNW 11.5 mph 18.4 mph N/A   Overcast
4:35 PM 32.0 °F 22.5 °F 12.2 °F 44% 20.50 in 10.0 mi WNW 12.7 mph 17.3 mph N/A   Scattered Clouds
4:55 PM 32.0 °F 22.5 °F 12.2 °F 44% 29.98 in 10.0 mi NW 12.7 mph 23.0 mph N/A   Mostly Cloudy
5:15 PM 32.0 °F 24.8 °F 12.2 °F 44% 29.98 in 10.0 mi WNW 8.1 mph 11.5 mph N/A   Mostly Cloudy
5:35 PM 32.0 °F 23.6 °F 12.2 °F 44% 29.98 in 10.0 mi WNW 10.4 mph 16.1 mph N/A   Mostly Cloudy
5:55 PM 30.2 °F 21.9 °F 12.2 °F 47% 29.99 in 10.0 mi WNW 9.2 mph - N/A   Scattered Clouds
6:15 PM 30.2 °F 23.4 °F 12.2 °F 47% - 10.0 mi NW 6.9 mph - N/A   Clear
6:35 PM - - - N/A% 30.00 in 10.0 mi WNW 9.2 mph - N/A   Clear
6:55 PM 28.4 °F 18.5 °F 12.2 °F 51% 30.01 in 10.0 mi WNW 11.5 mph - N/A   Clear
7:15 PM 28.4 °F 21.2 °F 12.2 °F 51% 30.01 in 10.0 mi WNW 6.9 mph - N/A   Clear
7:35 PM - - - N/A% 30.01 in 10.0 mi NW 6.9 mph - N/A   Clear
7:55 PM 26.6 °F 21.2 °F 12.2 °F 55% 30.02 in 10.0 mi NW 4.6 mph - N/A   Clear
8:15 PM 26.6 °F 21.2 °F 12.2 °F 55% 30.01 in 10.0 mi WNW 4.6 mph - N/A   Clear
8:35 PM 26.6 °F - 12.2 °F 55% 30.02 in 10.0 mi Calm Calm - N/A   Clear
8:55 PM - - - N/A% 30.02 in 10.0 mi Calm Calm - N/A   Clear
9:15 PM 26.6 °F 19.1 °F 14.0 °F 59% 30.01 in 10.0 mi NW 6.9 mph - N/A   Clear
9:35 PM 26.6 °F - 12.2 °F 55% 30.01 in 10.0 mi Calm Calm - N/A   Clear
9:55 PM 26.6 °F 20.0 °F 12.2 °F 55% 30.01 in 10.0 mi NW 5.8 mph - N/A   Clear
10:15 PM - - - N/A% 30.00 in 10.0 mi NW 5.8 mph - N/A   Clear
10:35 PM 26.6 °F 22.6 °F 14.0 °F 59% 30.00 in 10.0 mi WNW 3.5 mph - N/A   Clear
10:55 PM 26.6 °F - 12.2 °F 55% 30.00 in 10.0 mi Calm Calm - N/A   Scattered Clouds
11:15 PM 24.8 °F - 12.2 °F 59% 29.98 in 10.0 mi Calm Calm - N/A   Scattered Clouds
11:35 PM 24.8 °F - 14.0 °F 64% 29.98 in 10.0 mi Calm Calm - N/A   Clear
11:55 PM 24.8 °F - 14.0 °F 64% 29.97 in 10.0 mi Calm Calm - N/A   Clear